SKW5278 KATW-KORD

Flight info

Callsign SKW5278
Flight time N/A
Altitude 28000
Route DCT FAH DCT KOHLL MADII7
Aircraft E75L/M-SDE3GILORVW/S

Departure

Time 2026-05-06 02:57
Airport Appleton International Airport (KATW)

Arrival

Time N/A
Airport Chicago O'Hare International Airport (KORD)
Time Latitude Longitude Altitude Speed Heading
2026-05-06 02:49 44.26071 -88.51396 887 ft 0 kts 180°
2026-05-06 02:50 44.26081 -88.51396 887 ft 4 kts 176°
2026-05-06 02:50 44.26107 -88.51404 887 ft 4 kts 152°
2026-05-06 02:50 44.26121 -88.51429 888 ft 3 kts 92°
2026-05-06 02:51 44.26121 -88.51439 888 ft 0 kts 90°
2026-05-06 02:53 44.26121 -88.51438 888 ft 0 kts 96°
2026-05-06 02:54 44.26117 -88.51433 888 ft 1 kts 152°
2026-05-06 02:54 44.26112 -88.51440 888 ft 1 kts 257°
2026-05-06 02:54 44.26125 -88.51512 888 ft 15 kts 291°
2026-05-06 02:54 44.26191 -88.51564 891 ft 12 kts 27°
2026-05-06 02:55 44.26277 -88.51505 891 ft 18 kts 27°
2026-05-06 02:55 44.26403 -88.51425 892 ft 20 kts 34°
2026-05-06 02:55 44.26543 -88.51323 894 ft 24 kts 27°
2026-05-06 02:55 44.26703 -88.51210 895 ft 28 kts 26°
2026-05-06 02:56 44.26828 -88.51211 895 ft 17 kts 301°
2026-05-06 02:56 44.26818 -88.51311 894 ft 10 kts 198°
2026-05-06 02:56 44.26559 -88.51484 895 ft 83 kts 206°
2026-05-06 02:56 44.25803 -88.51988 936 ft 151 kts 207°
2026-05-06 02:57 44.24771 -88.52700 1551 ft 181 kts 211°
2026-05-06 02:57 44.23589 -88.53511 2578 ft 196 kts 200°
2026-05-06 02:57 44.22232 -88.53419 3293 ft 206 kts 160°
2026-05-06 02:57 44.21027 -88.52257 3724 ft 217 kts 135°
2026-05-06 02:58 44.20011 -88.50682 4111 ft 228 kts 131°
2026-05-06 02:58 44.18943 -88.48964 4444 ft 242 kts 131°
2026-05-06 02:58 44.17789 -88.47169 4876 ft 252 kts 133°
2026-05-06 02:58 44.16560 -88.45351 5298 ft 269 kts 134°
2026-05-06 02:59 44.15236 -88.43378 5636 ft 287 kts 133°
2026-05-06 02:59 44.13868 -88.41316 6228 ft 292 kts 135°
2026-05-06 02:59 44.12238 -88.39665 6832 ft 290 kts 162°
2026-05-06 02:59 44.10301 -88.39132 7552 ft 282 kts 178°
2026-05-06 03:00 44.08349 -88.38880 8204 ft 282 kts 179°
2026-05-06 03:00 44.06418 -88.38637 8817 ft 283 kts 179°
2026-05-06 03:00 44.04453 -88.38373 9451 ft 285 kts 179°
2026-05-06 03:00 44.02477 -88.38100 10045 ft 286 kts 179°
2026-05-06 03:01 44.00439 -88.37841 10184 ft 303 kts 181°
2026-05-06 03:01 43.98276 -88.37613 10257 ft 320 kts 180°
2026-05-06 03:01 43.96005 -88.37376 10322 ft 335 kts 180°
2026-05-06 03:01 43.93662 -88.37086 10681 ft 339 kts 179°
2026-05-06 03:02 43.91316 -88.36742 11158 ft 340 kts 179°
2026-05-06 03:02 43.88962 -88.36405 11687 ft 340 kts 179°
2026-05-06 03:02 43.86637 -88.36086 12198 ft 341 kts 179°
2026-05-06 03:02 43.84265 -88.35770 12746 ft 343 kts 180°
2026-05-06 03:03 43.81879 -88.35456 13293 ft 346 kts 180°
2026-05-06 03:03 43.79483 -88.35138 13916 ft 347 kts 181°
2026-05-06 03:03 43.77077 -88.34821 14509 ft 348 kts 181°
2026-05-06 03:03 43.74660 -88.34504 15142 ft 350 kts 182°
2026-05-06 03:04 43.72236 -88.34186 15790 ft 351 kts 182°
2026-05-06 03:04 43.69795 -88.33868 16433 ft 353 kts 183°
2026-05-06 03:04 43.67343 -88.33552 17101 ft 355 kts 184°
2026-05-06 03:04 43.64910 -88.33242 17767 ft 357 kts 184°
2026-05-06 03:05 43.62431 -88.32928 18443 ft 360 kts 185°
2026-05-06 03:05 43.59914 -88.32620 18907 ft 366 kts 185°
2026-05-06 03:05 43.57364 -88.32312 19534 ft 370 kts 184°
2026-05-06 03:05 43.54794 -88.31989 20208 ft 372 kts 184°
2026-05-06 03:06 43.52205 -88.31665 20861 ft 375 kts 185°
2026-05-06 03:06 43.49596 -88.31347 21492 ft 378 kts 185°
2026-05-06 03:06 43.46967 -88.31032 22080 ft 381 kts 185°
2026-05-06 03:06 43.44315 -88.30721 22649 ft 384 kts 185°
2026-05-06 03:07 43.41675 -88.30416 23176 ft 387 kts 185°
2026-05-06 03:07 43.38990 -88.30105 23755 ft 389 kts 185°
2026-05-06 03:07 43.36289 -88.29795 24254 ft 391 kts 185°
2026-05-06 03:07 43.33564 -88.29486 24754 ft 394 kts 185°
2026-05-06 03:08 43.30820 -88.29179 25282 ft 398 kts 185°
2026-05-06 03:08 43.28060 -88.28869 25920 ft 397 kts 185°
2026-05-06 03:08 43.25319 -88.28556 26630 ft 394 kts 186°
2026-05-06 03:08 43.22595 -88.28250 27302 ft 392 kts 186°
2026-05-06 03:09 43.19894 -88.27966 28038 ft 383 kts 187°
2026-05-06 03:09 43.17261 -88.27705 28185 ft 387 kts 187°
2026-05-06 03:09 43.14582 -88.27427 27971 ft 385 kts 187°
2026-05-06 03:09 43.11924 -88.27151 27966 ft 382 kts 187°
2026-05-06 03:10 43.09265 -88.26878 27955 ft 383 kts 187°
2026-05-06 03:10 43.06611 -88.26609 27950 ft 383 kts 187°
2026-05-06 03:10 43.03956 -88.26339 27950 ft 383 kts 187°
2026-05-06 03:10 43.01297 -88.26068 27953 ft 383 kts 187°
2026-05-06 03:11 42.98692 -88.25802 27988 ft 380 kts 187°
2026-05-06 03:11 42.96054 -88.25536 27992 ft 380 kts 187°
2026-05-06 03:11 42.93413 -88.25270 27955 ft 381 kts 187°
2026-05-06 03:11 42.90775 -88.25005 27933 ft 380 kts 187°
2026-05-06 03:12 42.88135 -88.24739 27912 ft 380 kts 187°
2026-05-06 03:12 42.85500 -88.24474 27913 ft 380 kts 187°
2026-05-06 03:12 42.84641 -88.24388 27919 ft 380 kts 188°